Header for Extended Forecast Station List Page

Search by: ID | Name | Date | Parm | Value | Avg | % Avg
Sort by: ID | Name | Date | Parm | Value | Avg | % Avg

Enter search or view all records.

Click on id for station plot
#IDNameDateParmValueAvg% Avg
0BULO3BULLY CREEK-BULLY CREEK DAM02-20-2018INFLOW (KAF)88104
1RIDI1WILLOW CREEK-RIRIE DAM02-20-2018INFLOW (KAF)304370
2BERO3MALHEUR-AGENCY VALLEY DAM02-20-2018INFLOW (KAF)335263
3VALO3MALHEUR-NEAR VALE02-20-2018DISCHARGE (KAF)376161
4LWRI1LITTLE WOOD-LITTLE WOOD DAM02-20-2018INFLOW (KAF)466867
5WRMO3MALHEUR-WARM SPRINGS DAM02-20-2018INFLOW (KAF)467066
6MYKO3MCKAY CREEK-NEAR PILOT ROCK02-20-2018DISCHARGE (KAF)5035141
7PIHI1PORTNEUF-AT POCATELLO02-20-2018DISCHARGE (KAF)7610076
8DLGM8CLARK FORK-AT DEER LODGE02-20-2018DISCHARGE (KAF)818299
9GIBO3UMATILLA-NEAR GIBBON02-20-2018DISCHARGE (KAF)9683116
10MACI1BIG LOST-MACKAY RESERVOIR NEAR MACKAY02-20-2018INFLOW (KAF)10010496
11KADW1KACHESS-KACHESS DAM02-20-2018INFLOW (KAF)102100102
12HOTI1BRUNEAU-NEAR HOT SPRINGS02-20-2018DISCHARGE (KAF)10516863
13DEDI1DEADWOOD-NEAR LOWMAN02-20-2018INFLOW (KAF)10610899
14BUDW1BUMPING-BUMPING LAKE DAM02-20-2018INFLOW (KAF)11195116
15HWRI1BIG LOST-AT HOWELL RANCH NEAR CHILLY02-20-2018DISCHARGE (KAF)115102113
16EASW1YAKIMA-AT EASTON02-20-2018DISCHARGE (KAF)11699117
17KEDW1YAKIMA-KEECHELUS LAKE02-20-2018INFLOW (KAF)118106112
18TNAW1TEANAWAY-BELOW FORKS02-20-2018DISCHARGE (KAF)164132124
19ARDW1ENTIAT-NEAR ARDENVOIR02-20-2018DISCHARGE (KAF)167143117
20SATI1ST MARIES-NEAR SANTA02-20-2018DISCHARGE (KAF)168150112
21MAGI1BIG WOOD-MAGIC DAM02-20-2018INFLOW (KAF)17321281
22RILW1TIETON-RIMROCK LAKE NEAR RIMROCK02-20-2018INFLOW (KAF)176157112
23HALI1BIG WOOD-AT HAILEY02-20-2018DISCHARGE (KAF)183166110
24UMAO3UMATILLA-NEAR UMATILLA02-20-2018DISCHARGE (KAF)198144137
25OWYO3OWYHEE-OWYHEE DAM02-20-2018INFLOW (KAF)20336056
26IPDI1HENRYS FORK-ISLAND PARK DAM02-20-2018INFLOW (KAF)209179117
27PDTO3UMATILLA-AT PENDLETON02-20-2018DISCHARGE (KAF)217185118
28TCHW1WALLA WALLA-NEAR TOUCHET02-20-2018DISCHARGE (KAF)241187129
29HODO3HOOD-NEAR TUCKER BRIDGE02-20-2018DISCHARGE (KAF)26427098
30RCCM8ROCK CREEK-NEAR CLINTON02-20-2018DISCHARGE (KAF)277193143
31TEAI1TETON-NEAR ST. ANTHONY02-20-2018DISCHARGE (KAF)292256114
32DRMM8CLARK FORK-NR DRUMMOND02-20-2018DISCHARGE (KAF)293MM
33STRM8ST. REGIS-NEAR ST. REGIS02-20-2018DISCHARGE (KAF)297237125
34BIGI1BOISE-AT GLENWOOD BRIDGE02-20-2018DISCHARGE (KAF)32935593
35CLUW1CLE ELUM-CLE ELUM LAKE02-20-2018INFLOW (KAF)337319106
36CHEI1FALL RIVER-NEAR CHESTER02-20-2018DISCHARGE (KAF)341291117
37UNDW1WHITE SALMON-NEAR UNDERWOOD02-20-2018DISCHARGE (KAF)34835598
38WSRI1WEISER-NEAR WEISER02-20-2018DISCHARGE (KAF)35043680
39PARI1BOISE-NEAR PARMA02-20-2018DISCHARGE (KAF)36541987
40CLFW1NACHES-NEAR CLIFFDEL02-20-2018DISCHARGE (KAF)371321115
41ARAI1SF BOISE-ANDERSON RANCH DAM02-20-2018INFLOW (KAF)37744585
42CSDI1NF PAYETTE-CASCADE DAM02-20-2018INFLOW (KAF)42245593
43MONO3NF JOHN DAY-AT MONUMENT02-20-2018DISCHARGE (KAF)46662575
44PITW1KLICKITAT-NEAR PITT02-20-2018DISCHARGE (KAF)52052998
45NACW1NACHES-NEAR NACHES02-20-2018DISCHARGE (KAF)576411140
46SERO3JOHN DAY-AT SERVICE CK02-20-2018DISCHARGE (KAF)62489969
47ANTI1HENRYS FORK-AT ST. ANTHONY02-20-2018DISCHARGE (KAF)690602115
48UMTW1YAKIMA-AT UMTANUM02-20-2018DISCHARGE (KAF)709634112
49JLKW4SNAKE-JACKSON LAKE AT DAM02-20-2018INFLOW (KAF)740543136
50CHDW1CHELAN-LAKE CHELAN DAM02-20-2018INFLOW (KAF)770718107
51PARW1YAKIMA-NEAR PARKER02-20-2018DISCHARGE (KAF)777636122
52PRTI1PRIEST-NEAR PRIEST RIVER02-20-2018DISCHARGE (KAF)782716109
53REXI1HENRYS FORK-AT REXBURG02-20-2018DISCHARGE (KAF)790704112
54PATW1METHOW-NEAR PATEROS02-20-2018DISCHARGE (KAF)807651124
55LUCI1BOISE-LUCKY PEAK DAM02-20-2018INFLOW (KAF)892MM
56KIOW1YAKIMA-AT KIONA02-20-2018DISCHARGE (KAF)10271016101
57EMMI1PAYETTE-NEAR EMMETT02-20-2018DISCHARGE (KAF)1031112392
58MILI1SNAKE-AT MILNER02-20-2018DISCHARGE (KAF)1043634164
59BONM8BLACKFOOT-NEAR BONNER02-20-2018DISCHARGE (KAF)1108638174
60PESW1WENATCHEE-AT PESHASTIN02-20-2018DISCHARGE (KAF)11841097108
61BITM8BITTERROOT-NEAR MISSOULA02-20-2018DISCHARGE (KAF)1203960125
62TRYO3GRANDE RONDE-TROY02-20-2018DISCHARGE (KAF)1214123598
63TONW1OKANOGAN-NEAR TONASKET02-20-2018DISCHARGE (KAF)13191167113
64JKSW4SNAKE-NEAR JACKSON02-20-2018DISCHARGE (KAF)1410989143
65FCFM8NF FLATHEAD-NEAR COLUMBIA FALLS02-20-2018DISCHARGE (KAF)14231184120
66MODO3DESCHUTES-AT MOODY NR BIGGS02-20-2018DISCHARGE (KAF)1447152795
67LAUW1KETTLE-AT LAURIER02-20-2018DISCHARGE (KAF)14681463100
68WGCM8MF FLATHEAD-NEAR WEST GLACIER02-20-2018DISCHARGE (KAF)14711156127
69ABOM8CLARK FORK-ABOVE MISSOULA02-20-2018DISCHARGE (KAF)17381162150
70ALPW4SNAKE-NEAR ALPINE02-20-2018DISCHARGE (KAF)17781302137
71HHWM8SF FLATHEAD-HUNGRY HORSE DAM02-20-2018INFLOW (KAF)20261543131
72PLDI1SF SNAKE-PALISADES DAM02-20-2018INFLOW (KAF)25502000128
73BFTI1SNAKE-NEAR BLACKFOOT02-20-2018DISCHARGE (KAF)26021642158
74SNAI1SNAKE-AT BLACKFOOT02-20-2018DISCHARGE (KAF)26211666157
75SWAI1SNAKE-BELOW SWAN FALLS02-20-2018DISCHARGE (KAF)28462671107
76SHYI1SNAKE-NEAR SHELLEY02-20-2018DISCHARGE (KAF)29211927152
77BELM8CLARK FORK-BELOW MISSOULA02-20-2018DISCHARGE (KAF)29412146137
78HEII1SNAKE-NEAR HEISE02-20-2018DISCHARGE (KAF)29881941154
79SIFI1SNAKE-AB EAGLE ROCK NR IDAHO FALLS02-20-2018DISCHARGE (KAF)30431947156
80DWRI1NF CLEARWATER-DWORSHAK DAM02-20-2018INFLOW (KAF)31052572121
81SPOW1SPOKANE-AT SPOKANE02-20-2018DISCHARGE (KAF)3152MM
82AFRI1SNAKE-AMERICAN FALLS RESERVOIR02-20-2018INFLOW (KAF)31862311138
83COEI1COEUR D ALENE-COEUR D ALENE LAKE02-20-2018INFLOW (KAF)31922816113
84LLKW1SPOKANE-AT LONGLAKE02-20-2018INFLOW (KAF)34823388103
85SRGM8CLARK FORK-AT ST REGIS02-20-2018DISCHARGE (KAF)37992917130
86LYDM8KOOTENAI-LIBBY DAM02-20-2018INFLOW (KAF)38603756103
87LEOI1KOOTENAI-AT LEONIA02-20-2018DISCHARGE (KAF)43403819114
88CFMM8FLATHEAD-AT COLUMBIA FALLS02-20-2018DISCHARGE (KAF)43803264134
89WHBI1SALMON-AT WHITEBIRD02-20-2018DISCHARGE (KAF)48334483108
90WEII1SNAKE-AT WEISER02-20-2018DISCHARGE (KAF)4891534991
91ORFI1CLEARWATER-AT OROFINO02-20-2018DISCHARGE (KAF)49154141119
92KERM8FLATHEAD-KERR DAM02-20-2018INFLOW (KAF)52044129126
93BRNI1SNAKE-BROWNLEE DAM02-20-2018INFLOW (KAF)5331578792
94SPDI1CLEARWATER-AT SPALDING02-20-2018DISCHARGE (KAF)73086451113
95NOXM8CLARK FORK-NOXON RAPIDS DAM02-20-2018INFLOW (KAF)87977509117
96CABI1CLARK FORK-CABINET GORGE DAM02-20-2018INFLOW (KAF)97057879123
97ANAW1SNAKE-NEAR ANATONE02-20-2018DISCHARGE (KAF)110891251089
98ALFW1PEND OREILLE-ALBENI FALLS DAM02-20-2018INFLOW (KAF)111359496117
99LGDW1SNAKE-LOWER GRANITE DAM02-20-2018INFLOW (KAF)183961896297
100LGSW1SNAKE-LITTLE GOOSE DAM02-20-2018INFLOW (KAF)183961899597
101LMNW1SNAKE-LOWER MONUMENTAL DAM02-20-2018INFLOW (KAF)188061920298
102IHDW1SNAKE-ICE HARBOR DAM02-20-2018INFLOW (KAF)188061907999
103CIBW1COLUMBIA-AT INTL BOUNDARY02-20-2018DISCHARGE (KAF)26368MM
104CHJW1COLUMBIA-CHIEF JOSEPH DAM02-20-2018INFLOW (KAF)2976727850107
105GCDW1COLUMBIA-GRAND COULEE DAM02-20-2018INFLOW (KAF)3143930835102
106WELW1COLUMBIA-WELLS DAM02-20-2018INFLOW (KAF)3187329772107
107RRHW1COLUMBIA-ROCKY REACH DAM02-20-2018INFLOW (KAF)3240130207107
108PRWW1COLUMBIA-PRIEST RAPIDS DAM02-20-2018INFLOW (KAF)3357132971102
109WANW1COLUMBIA-WANAPUM DAM02-20-2018INFLOW (KAF)3357532392104
110MCDW1COLUMBIA-MCNARY DAM02-20-2018INFLOW (KAF)535715416999
111JDAO3COLUMBIA-JOHN DAY DAM02-20-2018INFLOW (KAF)556915674598
112TDAO3COLUMBIA-THE DALLES DAM02-20-2018INFLOW (KAF)5613054215104
113BONO3COLUMBIA-BONNEVILLE DAM02-20-2018INFLOW (KAF)5725456473101
114BFEI1KOOTENAI-AT BONNERS FERRY02-20-2018STAGE (FT)MMM
115HOPI1PEND OREILLE-PEND OREILLE LAKE NR HOPE02-20-2018LAKE ELEVATION (FT)MMM
116SJMI1ST JOE-AT ST MARIES02-20-2018STAGE (FT)MMM